Hourly Data Report for October 12, 2014

All times are specified in Local Standard Time (LST). Add 1 hour to adjust for Daylight Saving Time where and when it is observed.

SAINT JOHN A
NEW BRUNSWICK

45°18'58.000" N
65°53'24.000" W
108.80 m
8104901
71609
YSJ

Download Data

Hourly Data (October 2014)
Hourly Data Report for October 12, 2014
Temp Definition
°C
Dew Point Temp Definition
°C
Rel Hum Definition
%
Wind Dir Definition
10's deg

Wind Spd Definition
km/h
Visibility Definition
km
Stn Press Definition
kPa
Hmdx Definition


Wind Chill Definition


Weather Definition


TIME
00:00 Legend Double Dagger 2.0 2.0 100 36 1 24.1 100.38     LegendNANA
01:00 Legend Double Dagger 0.9 0.9 100 36 2 24.1 100.39     LegendNANA
02:00 Legend Double Dagger 0.1 0.1 100 36 1 24.1 100.40     Clear
03:00 Legend Double Dagger -0.9 -0.9 100 36 3 24.1 100.36   -2 LegendNANA
04:00 Legend Double Dagger -2.0 -2.0 100 36 2 24.1 100.41   -3 LegendNANA
05:00 Legend Double Dagger 1.7 1.7 100 36 7 24.1 100.44     Clear
06:00 Legend Double Dagger 2.7 1.7 93 2 4 24.1 100.48     LegendNANA
07:00 Legend Double Dagger 2.3 1.6 95 2 9 24.1 100.53     LegendNANA
08:00 Legend Double Dagger 5.2 3.4 88 33 17 24.1 100.63     Clear
09:00 Legend Double Dagger 7.0 3.4 78 33 19 24.1 100.68     LegendNANA
10:00 Legend Double Dagger 8.8 2.4 64 33 19 24.1 100.72     LegendNANA
11:00 Legend Double Dagger 10.2 0.6 51 34 32 24.1 100.73     Mainly Clear
12:00 Legend Double Dagger 11.4 1.1 49 32 18 24.1 100.75     LegendNANA
13:00 Legend Double Dagger 12.3 0.8 45 29 22 24.1 100.74     LegendNANA
14:00 Legend Double Dagger 12.7 1.1 45 31 18 24.1 100.70     Mainly Clear
15:00 Legend Double Dagger 13.6 0.3 40 30 25 24.1 100.72     LegendNANA
16:00 Legend Double Dagger 13.5 -0.1 39 31 18 24.1 100.75     LegendNANA
17:00 Legend Double Dagger 12.4 -0.1 42 31 13 24.1 100.81     Clear
18:00 Legend Double Dagger 8.8 0.5 56 31 11 24.1 100.87     LegendNANA
19:00 Legend Double Dagger 7.1 1.4 67 31 8 24.1 100.94     LegendNANA
20:00 Legend Double Dagger 3.5 1.2 85 17 4 24.1 101.02     Clear
21:00 Legend Double Dagger 1.3 0.3 93 36 3 24.1 101.06     LegendNANA
22:00 Legend Double Dagger -0.1 -1.0 94 1 5 24.1 101.09   -2 LegendNANA
23:00 Legend Double Dagger 0.6 -0.4 93 34 4 24.1 101.13     Clear

Notes on Data Quality.

Legend

  • E = Estimated
  • M = Missing
  • NA = Not Available
  • ‡ = Partner data that is not subject to review by the National Climate Archives
Date modified: